Погода в Кемчуге

Погода в Кемчуге : погода сейчас, прогноз погоды и архив. Всё, что Вы хотите узнать о погоде в Кемчуге!

Хотите узнать прогноз погоды в Кемчуге? Тогда Вам сюда: Погода в Кемчуге

Поиск расширенной информации на нашем сайте:

Другие новости

Новости СМИ2

Главная страница сайта

Новости сайта

03.07.2017

Напоминаем, что на нашем специализированном сайте Метеоцентр.Азия вы можете получить высокодетализированные автоматические прогнозы погоды по пунктам России, СНГ и мира в авиационном формате (включающие направление и скорость ветра, видимость, явления погоды, количество и форму облачности, нижнюю и верхнюю границу облачности).

Рекомендуем: пластиковая упаковка по низкой цене

Погода в Кемчуге - сегодня

Время (UTC), дата Ветер
(°,м/с) 
Видим.   Явления Облачность Т
(°С)
Тd
(°С)
f(%) Тe
(°С)
Pmin
(гПа)
dP
(гПа)
Po
(мм)
O2
(г/м3)
Тmin Tmax R s Состояние
почвы
06 16.04.18 220 (ЮЗ) 5{10}  20000 м    10/5 600 м кучево-дожд., средняя 
[Cb cap|As trans]
+5.3 -5.1 47 +3  1007.4  -0.8  726  287           
09 16.04.18 210 (ЮЗ) 5{10}  20000 м    9/3 600 м кучево-дожд., средняя, верхняя 
[Cb cap|As op|Cs]
+8.6 -6.2 34 +7  1004.8  -2.1  724  283           
12 16.04.18 190 (Ю) 3{10}  20000 м    9/3 600 м кучево-дожд., средняя, верхняя 
[Cb cap|Ac As|Cs]
+8.3 -6.6 34 +8  1003.6  -1.1  723  283    +9.7       
15 16.04.18 150 (ЮВ) 50000 м    4/4 600 м кучево-дожд. 
[Cb cap]
+5.8 -6.4 41 +7  1003  -1.1  722  286           
18 16.04.18 230 (ЮЗ) 50000 м    3/3 600 м кучево-дожд. 
[Cb cap]
+1.4 -6.2 57 +1  1003.1  -0.4  722  290           
00 17.04.18 200 (Ю) 20000 м    9/9 600 м кучево-дожд. 
[Cb cap]
+3.8 -3.5 59 +1  1003.8  0.6  723  288  +1.4      мокрый или
старый снег
50-90% 
12 17.04.18 260 (З) 6-13{16}  20000 м    8/8 600 м кучево-дожд. 
[Cb cap]
+1.5 -6.5 55 -2  1007.9  0.6  725  291    +5.8  0.0     
18 17.04.18 230 (ЮЗ) 50000 м  {ливн. осадки}  3/3 600 м кучево-дожд. 
[Cb cap]
-3.9 -6.4 83 -7  1013.5  2.2  729  299           
21 17.04.18 250 (З) 50000 м    8/8 600 м кучево-дожд. 
[Cb cap]
-4.4 -7.2 81 -8  1015.1  1.3  730  300           
00 18.04.18 240 (ЮЗ) 20000 м    10/10 600 м кучево-дожд. 
[Cb cap]
-4.6 -7.8 78 -8  1016.7  1.8  731  300  -4.8    0.0  мокрый или
старый снег
50-90% 
03 18.04.18 300 (СЗ) 20000 м    8/5 600 м кучево-дожд., верхняя 
[Cb calv|Ci sp]
-3.5 -10.7 57 -7  1018.2  1.6  732  300           
06 18.04.18 280 (З) 4{11}  20000 м    8/8 600 м кучево-дожд. 
[Cb calv]
-2.5 -12 48 -5  1019.3  1.1  733  299           
12 18.04.18 260 (З) 3{10}  20000 м  {ливн. осадки}  8/8 600 м кучево-дожд. 
[Cb cap]
-2.8 -10 58 -5  1020.3  0.4  734  300    -0.6  0.0     
15 18.04.18 320 (СЗ) 50000 м    3/3 600 м кучево-дожд. 
[Cb cap]
-4.9 -11.9 58 -4  1020.9  0.3  734  302           
18 18.04.18 180 (Ю) 50000 м    ясно 
-7.4 -11.8 71 -7  1022.4  1.1  735  305           
21 18.04.18 тихо ()   50000 м    ясно 
-9.5 -11.9 83 -10  1023.4  0.6  735  308           
00 19.04.18 140 (ЮВ) 20000 м    8/8 600 м кучево-дожд. 
[Cb cap]
-9.2 -10.7 89 -9  1024.3  0.8  736  308  -10.7      мокрый или
старый снег
50-90% 
03 19.04.18 210 (ЮЗ) 20000 м    8/3 600 м кучево-дожд., верхняя 
[Cb calv|Cs]
-3.1 -10.5 57 -4  1023.3  736  301           
06 19.04.18 280 (З) 20000 м    9/8 600 м кучево-дожд., верхняя 
[Cb cap|Ci fib]
-0.5 -11.9 42 -3  1021.6  -1.1  735  298           
09 19.04.18 230 (ЮЗ) 20000 м    8/8 600 м кучево-дожд. 
[Cb cap]
-0.5 -11.2 44 -3  1020.7  -0.9  734  297           
12 19.04.18 270 (З) 20000 м    3/3 600 м кучево-дожд. 
[Cb cap]
+0.4 -12.1 39 1020.3  -0.3  734  296    +0.8       
15 19.04.18 110 (В) 50000 м    ясно 
-2.3 -12.1 47 -3  1020.4  -0.3  734  299           
18 19.04.18 100 (В) 50000 м    ясно 
-5.4 -11.3 63 -7  1020.3  -0.5  734  303           
21 19.04.18 тихо ()   50000 м    ясно 
-7.4 -11.4 73 -7  1020.7  734  305           
00 20.04.18 тихо ()   20000 м    ясно 
-9.4 -11 88 -9  1022  0.9  734  307  -10.8      мокрый или
старый снег
50-90% 
Время (UTC), дата Ветер
(°,м/с) 
Видим.   Явления Облачность Т
(°С)
Тd
(°С)
f(%) Тe
(°С)
Pmin
(гПа)
dP
(гПа)
Po
(мм)
O2
(г/м3)
Тmin Tmax R s Состояние
почвы

Для получения пояснительной информации подведите курсор к названию столбца.

ПОГОДА в Кемчуге - архив

Всё, что Вы хотите узнать о погоде в Кемчуге - удобно и подробно!

Выберите нужную дату (начиная с 1 января 2015* года) и нажмите кнопку "Найти".
Будут отображены архивные сводки погоды по пункту Кемчуг, начиная с указанной даты.


Отображать данные в формате CSV (для использования в таблицах Excel)


Внимание! Наш архив погоды предназначен исключительно для личного некоммерческого использования в познавательных целях. Если Вам необходимы официальные справки о состоянии погоды (для производственных, юридических, коммерческих и т.п. целей), обращайтесь в органы Росгидромета.

*Примечание: данная дата относится к архиву по метеостанциям СССР (Россия, СНГ, Балтия).
Архив по метеостанциям Зарубежной Европы и Азии (кроме Китая) хранится 10 дней, по другим регионам земного шара (Китай, Африка, Америка, Австралия, Океания) - 1 день.

Кемчуг - район местоположения метеостанции


Название, широта, долгота, высота метеостанции:
Кемчуг 56.1°ш. 91.7°д. 332 м над ур. моря [Российская Федерация]

Дополнительная информация

В oтличие oт бoльшинства пoгoдных сайтoв мы публикуем пoдрoбную метеoинфoрмацию в детальнoм прoфессиoнальнoм фoрмате.

Характеристики температуры и влажнoсти вoздуха измеряются на высoте 2 м в тени вдали oт зданий и деревьев.
Скoрoсть ветра измеряется на высoте 10 м (на урoвне рoста челoвека скoрoсть ветра ниже в 1.5-2 раза). Если метеoстанция нахoдится в гoрoде или в лесу, тo скoрoсть ветра занижена на 2-4 м/с пo сравнению с oткрытым местoм. Скoрoсть ветра над акватoриями крупных рек и oзёр, а также на вершинах хoлмoв на 2-5 м/с выше, чем в oбычных услoвиях.
Атмoсфернoе давление в разных тoчках местнoсти мoжет значительнo oтличаться oт давления на метеoстанции, в зависимoсти oт услoвий рельефа (при пoдъёме на 10 м давление пoнижается примернo на 1 мм рт.ст.).